This demonstration page uses our WeatherBlox Daily Observations layout. Learn more.

Left ArrowRight Arrow

39.51506, -84.39828

Hourly Observations for June 7, 2017

Temp ( °F °C ) Dew Point ( °F °C ) Humidity (%) Winds ( mph kmh ) Pressure ( in mb ) Visibility ( mi km ) Precip ( " mm )
12:15 am 00:15 Clear 61 16 48 8.8 63 63 N 3 6 29.97 1015 10 16 0.00 0.00
12:35 am 00:35 Clear 60 15.3 48 8.7 65 65 N 3 6 29.97 1015 10 16 0.00 0.00
12:55 am 00:55 Clear 60 15.3 48 8.8 65 65 N 5 7 29.97 1015 10 16 0.00 0.00
1:15 am 01:15 Clear 60 15.3 49 9.4 68 68 N 3 6 29.97 1015 10 16 0.00 0.00
1:35 am 01:35 Clear 60 15.3 49 9.2 67 67 NNE 5 7 29.97 1015 10 16 0.00 0.00
1:55 am 01:55 Clear 60 15.3 49 9.4 68 68 N 3 6 29.94 1014 10 16 0.00 0.00
2:15 am 02:15 Clear 57 14.1 48 8.7 70 70 N 3 6 29.97 1015 10 16 0.00 0.00
2:35 am 02:35 Partly Cloudy 59 14.8 49 9.7 72 72 N 3 6 29.97 1015 10 16 0.00 0.00
2:55 am 02:55 Partly Cloudy 57 13.8 48 9 73 73 N 5 7 29.97 1015 10 16 0.00 0.00
3:15 am 03:15 Clear 57 13.8 49 9.2 74 74 NNW 5 7 29.97 1015 10 16 0.00 0.00
3:35 am 03:35 Clear 57 13.8 49 9.5 75 75 Calm 29.97 1015 10 16 0.00 0.00
3:55 am 03:55 Clear 57 13.8 49 9.5 75 75 NNW 3 6 29.97 1015 10 16 0.00 0.00
4:15 am 04:15 Clear 55 13 48 9.1 77 77 N 3 6 29.97 1015 10 16 0.00 0.00
4:35 am 04:35 Clear 55 12.5 48 8.7 78 78 N 3 6 29.97 1015 10 16 0.00 0.00
4:55 am 04:55 Clear 56 13.3 49 9.5 78 78 Calm 29.97 1015 10 16 0.00 0.00
5:15 am 05:15 Clear 55 12.5 48 8.7 78 78 Calm 30.00 1016 10 16 0.00 0.00
5:35 am 05:35 Clear 55 12.5 48 8.7 78 78 Calm 30.00 1016 10 16 0.00 0.00
5:55 am 05:55 Clear 55 12.5 47 8.6 77 77 N 3 6 30.00 1016 10 16 0.00 0.00
6:15 am 06:15 Partly Cloudy 55 12.6 48 8.9 78 78 N 3 6 30.00 1016 10 16 0.00 0.00
6:35 am 06:35 Partly Cloudy 57 13.8 50 10 78 78 N 3 6 30.00 1016 10 16 0.00 0.00
6:55 am 06:55 Partly Cloudy 57 13.8 50 10 78 78 N 3 6 30.03 1017 10 16 0.00 0.00
7:15 am 07:15 Partly Cloudy 57 13.8 50 10.2 79 79 Calm 30.03 1017 10 16 0.00 0.00
7:35 am 07:35 Mostly Cloudy 57 13.8 50 10.2 79 79 N 3 6 30.03 1017 10 16 0.00 0.00
7:55 am 07:55 Cloudy 60 15.4 52 11.1 76 76 N 5 7 30.03 1017 10 16 0.00 0.00
8:15 am 08:15 Partly Cloudy 62 16.4 52 11 71 71 N 7 11 30.00 1016 10 16 0.00 0.00
8:35 am 08:35 Mostly Cloudy 62 16.6 51 10.6 68 68 N 8 13 30.00 1016 10 16 0.00 0.00
8:55 am 08:55 Cloudy 62 16.6 51 10.3 67 67 N 8 13 30.00 1016 10 16 0.00 0.00
9:15 am 09:15 Cloudy 60 15.3 51 10.5 73 73 N 10 17 30.06 1018 10 16 0.00 0.00
9:35 am 09:35 Cloudy 60 15.7 51 10.6 72 72 N 6 9 30.06 1018 10 16 0.00 0.00
9:55 am 09:55 Cloudy 61 16.2 51 10.7 70 70 N 7 11 30.03 1017 10 16 0.00 0.00
10:15 am 10:15 Cloudy 62 16.9 51 10.7 67 67 N 9 15 30.00 1016 10 16 0.00 0.00
10:35 am 10:35 Cloudy 61 15.9 52 11.1 73 73 N 3 6 30.03 1017 10 16 0.00 0.00
10:55 am 10:55 Partly Cloudy 62 16.6 50 9.9 65 65 N 9 15 30.00 1016 10 16 0.00 0.00
11:15 am 11:15 Sunny 64 17.6 51 10.5 63 63 N 7 11 30.00 1016 10 16 0.00 0.00
11:35 am 11:35 Sunny 64 18 51 10.7 63 63 N 9 15 30.00 1016 10 16 0.00 0.00
11:55 am 11:55 Sunny 64 18 49 9.4 57 57 N 10 17 30.00 1016 10 16 0.00 0.00
12:15 pm 12:15 Partly Cloudy 62 16.6 51 10.7 68 68 N 14 22 30.03 1017 10 16 0.00 0.00
12:35 pm 12:35 Partly Cloudy 61 16.2 50 10.1 67 67 N 8 13 30.03 1017 10 16 0.00 0.00
12:55 pm 12:55 Partly Cloudy 62 16.7 48 9.1 61 61 N 8 13 30.03 1017 10 16 0.00 0.00
1:15 pm 13:15 Sunny 63 17.1 49 9.2 60 60 N 7 11 30.03 1017 10 16 0.00 0.00
1:35 pm 13:35 Mostly Cloudy with Drizzle 60 15.3 49 9.5 69 69 NNE 7 11 30.06 1018 10 16 0.00 0.00
1:55 pm 13:55 Partly Cloudy 62 16.6 50 10.1 66 66 N 6 9 30.03 1017 10 16 0.00 0.00
2:15 pm 14:15 Partly Cloudy 64 17.5 49 9.6 60 60 NNE 13 20 30.03 1017 10 16 0.00 0.00
2:35 pm 14:35 Mostly Cloudy 62 16.6 46 7.7 56 56 NNE 8 13 30.03 1017 10 16 0.00 0.00
2:55 pm 14:55 Mostly Cloudy 62 16.6 47 8.4 59 59 Calm 30.03 1017 10 16 0.00 0.00
3:15 pm 15:15 Partly Cloudy 63 17.2 49 9.2 60 60 N 8 13 30.03 1017 10 16 0.00 0.00
3:35 pm 15:35 Sunny 67 19.7 51 10.6 56 56 N 10 17 30.03 1017 10 16 0.00 0.00
3:55 pm 15:55 Partly Cloudy 67 19.5 48 9.1 51 51 NNE 14 22 30.03 1017 10 16 0.00 0.00
4:15 pm 16:15 Partly Cloudy 63 17.1 47 8.3 56 56 NNE 12 19 30.03 1017 10 16 0.00 0.00
4:35 pm 16:35 Partly Cloudy 64 18 48 8.8 55 55 NNE 10 17 30.03 1017 10 16 0.00 0.00
4:55 pm 16:55 Sunny 69 20.8 49 9.4 48 48 N 13 20 30.03 1017 10 16 0.00 0.00
5:15 pm 17:15 Sunny 67 19.5 47 8.5 49 49 NNE 12 19 30.03 1017 10 16 0.00 0.00
5:35 pm 17:35 Sunny 66 18.8 47 8.2 50 50 NNE 14 22 30.03 1017 10 16 0.00 0.00
5:55 pm 17:55 Sunny 64 18 46 7.7 51 51 NNE 9 15 30.03 1017 10 16 0.00 0.00
6:15 pm 18:15 Sunny 64 18 46 7.9 52 52 Calm 30.03 1017 10 16 0.00 0.00
6:35 pm 18:35 Sunny 64 18 46 8 52 52 NNE 8 13 30.03 1017 10 16 0.00 0.00
6:55 pm 18:55 Partly Cloudy 64 18 45 7.3 50 50 NNE 9 15 30.00 1016 10 16 0.00 0.00
7:15 pm 19:15 Partly Cloudy 64 17.9 46 7.6 51 51 NE 9 15 30.00 1016 10 16 0.00 0.00
7:35 pm 19:35 Partly Cloudy 64 17.5 45 7.4 52 52 ENE 8 13 30.03 1017 10 16 0.00 0.00
7:55 pm 19:55 Partly Cloudy 63 17 45 7.1 52 52 ENE 7 11 30.03 1017 10 16 0.00 0.00
8:15 pm 20:15 Partly Cloudy 63 17 45 7.4 53 53 ENE 7 11 30.03 1017 10 16 0.00 0.00
8:35 pm 20:35 Partly Cloudy 62 16.7 46 7.5 55 55 ENE 3 6 30.03 1017 10 16 0.00 0.00
8:55 pm 20:55 Partly Cloudy 62 16.6 46 7.9 57 57 ENE 3 6 30.03 1017 10 16 0.00 0.00
9:15 pm 21:15 Partly Cloudy 61 16 46 8 59 59 NNE 3 6 30.03 1017 10 16 0.00 0.00
9:35 pm 21:35 Clear 60 15.3 47 8.6 65 65 Calm 30.06 1018 10 16 0.00 0.00
9:55 pm 21:55 Clear 57 14.1 47 8.5 69 69 N 3 6 30.06 1018 10 16 0.00 0.00
10:15 pm 22:15 Clear 57 13.8 48 9 73 73 Calm 30.06 1018 10 16 0.00 0.00
10:35 pm 22:35 Clear 55 12.5 47 8.5 77 77 Calm 30.06 1018 10 16 0.00 0.00
10:55 pm 22:55 Clear 55 13 48 9 77 77 N 3 6 30.06 1018 10 16 0.00 0.00
11:15 pm 23:15 Clear 55 12.8 48 8.7 76 76 N 3 6 30.06 1018 10 16 0.00 0.00
11:35 pm 23:35 Clear 55 12.5 48 8.7 78 78 Calm 30.06 1018 10 16 0.00 0.00
11:55 pm 23:55 Clear 55 12.5 48 9 79 79 N 3 6 30.06 1018 10 16 0.00 0.00

Powered by AerisWeather